Tracking 30072 objects as of 14-Jan-2025
HD Live streaming from Space Station
objects crossing your sky now

AUREOLE 2

Track AUREOLE 2 now!
10-day predictions
AUREOLE 2 is classified as:


NORAD ID: 7003
Int'l Code: 1973-107A
Perigee: 346.5 km
Apogee: 659.3 km
Inclination: 73.9 °
Period: 94.5 minutes
Semi major axis: 6873 km
RCS: 2.1042 m2 (large)
Launch date: December 26, 1973
Source: France (FR)
Launch site: PLESETSK MISSILE AND SPACE COMPLEX (PKMTR)
Your satellite tracking list
Your tracking list is empty




NASA's NSSDC Master Catalog

Two Line Element Set (TLE):
1  7003U 73107A   25014.11221697  .00023615  00000-0  47308-3 0  9991
2  7003  73.9071 234.9603 0227501 301.1381  56.7678 15.23352927624370
Source of the keplerian elements: AFSPC